Location: Newark
(37.6333°N, 5.2500°W)
Time: 18:11:22
(UTC+00:00)

Hubble Space Telescope - Visible Passes

Search period start: 23 October 2019 00:00
Search period end: 02 November 2019 00:00
Orbit: 536 x 540 km, 28.5° (Epoch: 22 October)

Date Brightness Start Highest point End Pass type
(mag) Time Alt. Az. Time Alt. Az. Time Alt. Az.
30 Oct 3.4 04:32:22 12° SSE 04:32:32 12° SSE 04:34:02 10° SE visible
30 Oct 2.8 06:09:56 10° SW 06:13:04 21° S 06:16:13 10° SE visible
31 Oct 3.4 04:22:36 13° SSE 04:22:36 13° SSE 04:23:58 10° SE visible
31 Oct 2.7 05:59:11 10° SW 06:02:24 22° S 06:05:37 10° SE visible
01 Nov 3.5 04:12:47 13° SE 04:12:47 13° SE 04:13:41 10° SE visible
01 Nov 2.6 05:48:29 10° SW 05:51:44 23° S 05:55:00 10° SE visible
